Alice, TX

2:52 AM CDT on September 26, 2017 (GMT -0500)
Alice International

Weather History for KALI - October, 2013

Change the Weather History Date:

Monday, October 7, 2013

  Actual Average Record
Temperature  
Mean Temperature 71 °F -  
Max Temperature 88 °F 84 °F 96 °F (2008)
Min Temperature 55 °F 64 °F 51 °F (2000)
Cooling Degree Days 6    
Growing Degree Days 21 (Base 50)    
Moisture  
Dew Point 49 °F    
Average Humidity 54    
Maximum Humidity 87    
Minimum Humidity 20    
Precipitation  
Precipitation 0.00 in - - ()
Sea Level Pressure  
Sea Level Pressure 30.10 in    
Wind  
Wind Speed 7 mph (NW)    
Max Wind Speed 13 mph    
Max Gust Speed 16 mph    
Visibility 10 miles    
Events      
Averages and records for this station are not official NWS values.
T = Trace of Precipitation, MM = Missing Value Source: NWS Daily Summary

Daily Weather History Graph

Daily Weather History Graph

Search for Another Location

Airport or City:

Trip Planner

Search our weather history database for the weather conditions in past years. The results will help you decide how hot, cold, wet, or windy it might be!

Date:

Astronomy

Oct. 07, 2013 Rise Set
Actual Time 7:28 AM CDT 7:11 PM CDT
Civil Twilight 7:04 AM CDT 7:34 PM CDT
Nautical Twilight 6:37 AM CDT 8:01 PM CDT
Astronomical Twilight 6:10 AM CDT 8:28 PM CDT
Moon 10:03 AM CDT (10/7) 9:14 PM CDT (10/7)
Length of Visible Light 12h 29m
Length of Day
11h 43m
Waxing Crescent, 9% of the Moon is Illuminated
Oct 7
Waxing Crescent
Oct 11
First Quarter
Oct 18
Full
Oct 26
Last Quarter
Nov 3
New

Hourly Weather History & Observations

Time (CDT) Temp. Dew Point Humidity Pressure Visibility Wind Dir Wind Speed Gust Speed Precip Events Conditions
12:53 AM 60.1 °F 52.0 °F 75% 30.11 in 10.0 mi WNW 8.1 mph - N/A   Clear
1:53 AM 57.9 °F 52.0 °F 81% 30.10 in 10.0 mi WNW 6.9 mph - N/A   Clear
2:53 AM 57.9 °F 50.0 °F 75% 30.11 in 10.0 mi WNW 8.1 mph - N/A   Clear
3:53 AM 57.9 °F 51.1 °F 78% 30.10 in 10.0 mi WNW 8.1 mph - N/A   Clear
4:53 AM 57.0 °F 52.0 °F 83% 30.10 in 10.0 mi NW 8.1 mph - N/A   Clear
5:53 AM 57.9 °F 52.0 °F 81% 30.10 in 10.0 mi WNW 8.1 mph - N/A   Clear
6:53 AM 57.0 °F 51.1 °F 81% 30.11 in 10.0 mi WNW 6.9 mph - N/A   Clear
7:53 AM 55.9 °F 52.0 °F 87% 30.12 in 10.0 mi WNW 5.8 mph - N/A   Clear
8:53 AM 64.0 °F 52.0 °F 65% 30.14 in 10.0 mi NW 6.9 mph - N/A   Clear
9:53 AM 71.1 °F 53.1 °F 53% 30.15 in 10.0 mi North 8.1 mph - N/A   Clear
10:53 AM 77.0 °F 52.0 °F 42% 30.16 in 10.0 mi NNW 6.9 mph - N/A   Clear
11:53 AM 81.0 °F 46.9 °F 30% 30.16 in 10.0 mi NNE 9.2 mph - N/A   Clear
12:53 PM 82.9 °F 45.0 °F 26% 30.13 in 10.0 mi Variable 5.8 mph - N/A   Clear
1:53 PM 84.9 °F 45.0 °F 25% 30.10 in 10.0 mi Variable 5.8 mph - N/A   Clear
2:53 PM 86.0 °F 44.1 °F 23% 30.07 in 10.0 mi NNW 8.1 mph 16.1 mph N/A   Clear
3:53 PM 87.1 °F 42.1 °F 21% 30.05 in 10.0 mi NNE 12.7 mph - N/A   Clear
4:53 PM 87.1 °F 41.0 °F 20% 30.04 in 10.0 mi Calm Calm - N/A   Clear
5:53 PM 86.0 °F 42.1 °F 21% 30.03 in 10.0 mi North 6.9 mph - N/A   Clear
6:53 PM 80.1 °F 46.0 °F 30% 30.04 in 10.0 mi North 4.6 mph - N/A   Clear
7:53 PM 73.0 °F 48.0 °F 41% 30.05 in 10.0 mi Calm Calm - N/A   Clear
8:53 PM 66.9 °F 52.0 °F 59% 30.07 in 10.0 mi SE 5.8 mph - N/A   Clear
9:53 PM 66.0 °F 51.1 °F 59% 30.09 in 10.0 mi SSE 3.5 mph - N/A   Clear
10:53 PM 62.1 °F 54.0 °F 75% 30.08 in 10.0 mi South 5.8 mph - N/A   Clear
11:53 PM 61.0 °F 53.1 °F 75% 30.07 in 10.0 mi South 3.5 mph - N/A   Clear